TimeCDT,TemperatureF,Dew PointF,Humidity,Sea Level PressureIn,VisibilityMPH,Wind Direction,Wind SpeedMPH,Gust SpeedMPH,PrecipitationIn,Events,Conditions,WindDirDegrees,DateUTC
12:56 AM,81.0,69.1,67,30.07,10.0,SE,6.9,-,N/A,,Clear,130,2013-08-25 05:56:00
1:56 AM,80.1,70.0,71,30.07,10.0,SE,6.9,-,N/A,,Clear,140,2013-08-25 06:56:00
2:56 AM,78.1,71.1,79,30.07,10.0,SE,9.2,-,N/A,,Clear,140,2013-08-25 07:56:00
3:56 AM,77.0,71.1,82,30.09,10.0,SE,6.9,-,N/A,,Clear,140,2013-08-25 08:56:00
4:56 AM,75.9,71.1,85,30.10,10.0,SE,5.8,-,N/A,,Clear,130,2013-08-25 09:56:00
5:56 AM,73.9,71.1,91,30.10,10.0,ESE,3.5,-,N/A,,Clear,120,2013-08-25 10:56:00
6:56 AM,73.0,70.0,90,30.12,10.0,East,6.9,-,N/A,,Partly Cloudy,80,2013-08-25 11:56:00
7:56 AM,77.0,72.0,84,30.14,10.0,East,10.4,-,N/A,,Partly Cloudy,80,2013-08-25 12:56:00
8:56 AM,80.1,71.1,74,30.14,10.0,East,6.9,-,N/A,,Scattered Clouds,100,2013-08-25 13:56:00
9:56 AM,84.0,68.0,58,30.14,10.0,SE,8.1,-,N/A,,Scattered Clouds,130,2013-08-25 14:56:00
10:56 AM,87.1,68.0,53,30.16,10.0,ESE,13.8,18.4,N/A,,Scattered Clouds,110,2013-08-25 15:56:00
11:56 AM,90.0,66.9,46,30.14,10.0,SE,10.4,25.3,N/A,,Scattered Clouds,130,2013-08-25 16:56:00
12:56 PM,91.9,68.0,45,30.12,10.0,East,16.1,24.2,N/A,,Scattered Clouds,90,2013-08-25 17:56:00
1:56 PM,93.0,66.0,41,30.12,10.0,East,12.7,26.5,N/A,,Mostly Cloudy,90,2013-08-25 18:56:00
2:56 PM,96.1,66.0,37,30.10,10.0,ESE,9.2,18.4,N/A,,Mostly Cloudy,110,2013-08-25 19:56:00
3:56 PM,93.0,64.9,39,30.08,10.0,SE,12.7,18.4,N/A,,Scattered Clouds,130,2013-08-25 20:56:00
4:56 PM,93.9,64.9,38,30.07,10.0,ESE,8.1,-,N/A,,Scattered Clouds,120,2013-08-25 21:56:00
5:56 PM,93.9,64.9,38,30.07,10.0,SSE,10.4,18.4,N/A,,Scattered Clouds,150,2013-08-25 22:56:00
6:56 PM,91.9,66.0,42,30.06,10.0,ESE,10.4,-,N/A,,Scattered Clouds,120,2013-08-25 23:56:00
7:56 PM,88.0,66.0,48,30.07,10.0,ESE,6.9,-,N/A,,Scattered Clouds,110,2013-08-26 00:56:00
8:56 PM,86.0,66.9,53,30.09,10.0,ESE,5.8,-,N/A,,Partly Cloudy,120,2013-08-26 01:56:00
9:56 PM,82.9,68.0,60,30.11,10.0,SE,4.6,-,N/A,,Scattered Clouds,130,2013-08-26 02:56:00
10:56 PM,84.9,69.1,59,30.14,10.0,SE,9.2,-,N/A,,Overcast,130,2013-08-26 03:56:00
11:56 PM,82.9,69.1,63,30.14,10.0,SE,9.2,-,N/A,,Mostly Cloudy,140,2013-08-26 04:56:00